SCP
0 0 0 0 0 0 0 0 0 0 0 0 0 0 1 1 1 1 0 0 0 0 0 0 0 0 0 0 0 0 0 -0 -0 -0 -0 -0 -0 -0 -0 -0 -0 0 0 0 0 0 0 0 0
0 0 0 0 0 0 0 0 0 1 0 0 0 0 0 0 0 0 0 0 0 0 0 0 -0 0 0 0 0 0 -0 -0 -0 -0 -0 -0 -0 -0 -0 -0 0 0 0 0 0 0 0 0 0
0 0 0 0 0 0 0 0 0 0 0 0 0 0 0 0 0 0 -0 -0 0 0 0 -0 -0 0 0 0 0 0 -0 -0 -0 0 -0 -0 -0 -0 0 0 0 0 0 0 0 0 0 0 0
0 0 0 0 0 0 0 0 0 0 0 0 0 0 0 0 0 0 0 0 0 -0 -0 -0 -0 0 -0 -0 0 -0 -0 -0 0 -0 -0 -0 0 0 0 0 0 0 0 0 0 0 0 0 0
0 0 0 0 0 0 0 0 0 0 0 0 -0 0 0 -0 -0 0 -0 0 0 -0 -0 -0 0 0 -0 -0 -0 -0 -0 -0 -0 -0 0 0 0 0 0 0 0 0 0 0 0 0 0 0 0
0 0 0 0 0 0 0 0 0 0 0 0 0 0 -0 -0 0 0 0 0 0 -0 -0 -0 0 0 0 0 -0 -0 -0 -0 -0 0 0 0 0 0 0 0 0 0 0 0 0 0 0 0 0
0 0 0 0 0 0 0 0 0 0 -0 -0 -0 0 0 0 0 0 -0 -0 -0 0 -0 0 0 0 0 0 0 -0 -0 0 -0 0 0 0 0 0 0 0 0 0 0 0 0 0 0 0 0
0 0 0 0 0 0 0 0 0 0 0 0 0 0 -0 -0 -0 -0 -0 -0 0 -0 0 0 0 0 0 0 0 -0 -0 -0 -0 0 0 0 0 0 0 0 0 0 0 0 0 0 0 0 0
0 0 0 0 0 0 0 0 0 -0 -0 0 0 -0 -0 -0 -0 -0 0 0 0 0 0 0 0 0 0 0 0 0 -0 0 0 0 0 0 0 0 0 0 0 0 0 0 0 0 0 0 0
0 0 0 0 0 -0 0 0 0 0 0 0 0 0 -0 -0 -0 -0 0 0 -0 -0 -0 0 0 0 0 0 0 0 -0 -0 0 0 0 0 0 0 0 0 0 0 0 0 0 0 0 0 0
0 0 0 0 0 -0 0 0 0 -0 -0 -0 -0 -0 -0 -0 0 0 0 0 -0 0 0 0 0 0 0 0 0 -0 -0 -0 0 0 0 0 0 0 0 0 0 0 0 0 0 0 0 0 0
-0 0 0 -0 -0 -0 -0 -0 0 -0 0 0 0 -0 -0 -0 0 0 0 0 -0 -0 -0 -0 -0 0 0 -0 -0 -0 0 0 0 0 0 0 0 0 0 0 0 0 0 0 0 0 0 0 0
-0 0 -0 -0 -0 -0 0 0 -0 -0 0 0 -0 -0 -0 0 0 0 0 0 0 0 -0 -0 -0 0 0 0 0 0 0 0 0 0 0 0 0 0 0 0 0 0 0 0 0 0 0 0 0
-0 -0 -0 -0 -0 -0 -0 -0 -0 0 -0 -0 -0 0 0 0 -0 0 0 0 0 -0 -0 0 -0 0 0 0 0 0 0 0 0 0 0 0 0 0 0 0 0 0 0 0 0 0 0 0 0
-0 0 0 -0 -0 0 -0 -0 -0 0 0 -0 -0 0 0 0 0 0 0 0 0 0 -0 -0 0 0 0 0 0 0 0 0 0 0 0 0 0 0 0 0 0 0 0 0 0 0 0 0 0
0 0 0 -0 -0 0 0 -0 0 0 0 -0 -0 0 0 0 0 0 -0 -0 0 -0 -0 -0 0 0 0 0 0 0 0 0 -0 0 0 0 0 0 0 0 0 0 0 0 0 0 0 0 0
0 0 0 0 0 0 -0 0 -0 0 0 0 -0 -0 -0 -0 -0 -0 -0 0 0 -0 -0 0 0 0 0 0 0 -0 -0 0 0 0 0 0 0 0 0 0 0 0 0 0 0 0 0 0 0
0 0 0 -0 0 0 0 0 0 0 0 -0 -0 -0 -0 0 0 0 0 0 0 0 0 0 0 0 0 0 -0 0 0 0 0 0 0 0 0 0 0 0 0 0 0 0 0 0 0 0 0
0 0 -0 -0 0 -0 0 0 0 0 -0 -0 -0 -0 0 0 0 0 0 0 0 0 0 0 0 0 0 0 0 0 0 0 0 0 0 0 0 0 0 0 0 0 0 0 0 0 0 0 0
0 -0 0 0 0 0 -0 0 0 0 -0 0 -0 0 0 0 0 0 0 0 0 0 0 0 0 0 0 0 0 0 0 0 0 0 0 0 0 0 0 0 0 0 0 0 0 0 0 0 0
0 0 0 0 0 0 -0 0 0 0 0 0 0 0 0 0 0 0 0 0 0 0 0 0 0 0 0 0 0 0 0 0 0 0 0 0 0 0 0 0 0 0 0 0 0 0 0 0 0
0 0 0 0 -0 0 0 0 0 0 0 0 0 0 0 0 0 0 0 0 0 0 0 0 0 0 0 0 0 0 0 0 0 0 0 0 0 0 0 0 0 0 0 0 0 0 0 0 0
0 0 0 0 -0 0 -0 -0 0 0 0 0 0 0 0 0 0 0 0 0 0 0 0 0 0 0 0 0 0 0 0 0 0 0 0 0 0 0 0 0 0 0 0 0 0 0 0 0 0
0 0 0 0 0 -0 0 0 0 0 0 0 0 0 0 0 0 0 0 0 0 0 0 0 0 0 0 0 0 0 0 0 0 0 0 0 0 0 0 0 0 0 0 0 0 0 0 0 0
-0 -0 -0 -0 -0 0 0 0 -0 0 0 0 0 0 0 0 0 0 0 0 0 0 0 0 0 0 0 0 0 0 0 0 0 0 0 0 0 0 0 0 0 0 0 0 0 0 0 0 0
-0 0 -0 0 0 0 0 -0 0 0 0 0 -0 -0 -0 -0 -0 -0 0 0 0 0 0 0 0 0 0 0 0 0 0 0 0 0 0 0 0 0 0 0 0 0 0 0 0 0 0 0 0
0 0 0 0 0 -0 0 0 -0 0 -0 -0 -0 -0 -0 -0 -0 -0 0 0 0 0 0 0 0 0 0 0 0 0 0 0 0 0 0 0 0 0 0 0 0 0 0 0 0 0 0 0 0
0 0 0 0 0 0 0 0 0 -0 -0 -0 -0 -0 -0 -0 0 0 0 0 0 0 0 0 0 0 0 0 0 0 0 0 0 0 0 0 0 0 0 0 0 0 0 0 0 0 0 0 0
0 0 0 0 0 0 0 0 0 0 0 -0 -0 -0 -0 0 0 0 0 0 0 0 0 0 0 0 0 0 0 0 0 0 0 0 0 0 0 0 0 0 0 0 0 0 0 0 0 0 0
0 0 0 0 0 0 0 0 0 0 0 0 0 0 0 0 0 0 0 0 0 0 0 0 0 0 0 0 0 0 0 0 0 0 0 0 0 0 0 0 0 0 0 0 0 0 0 0 0
Wind_Speed_500mb
12 10 7 6 14 12 19 11 3 18 19 20 15 7 19 30 10 5 35 35 48 49 47 44 39 36 32 29 27 26 24 23 22 21 21 24 26 26 26 23 22 21 20 19 19 19 20 22 22
12 6 5 8 15 18 9 0 10 24 36 21 19 18 22 13 13 25 35 42 46 51 48 43 40 35 32 28 26 25 24 23 22 24 26 28 28 27 25 22 20 19 17 17 19 21 23 23 23
10 12 12 8 14 20 4 16 33 36 33 31 11 15 9 8 16 27 30 49 46 44 44 43 40 36 32 30 28 26 25 24 25 27 29 29 27 25 23 21 21 22 24 25 26 25 27 29 30
9 9 9 16 14 7 3 26 37 36 32 18 24 8 10 16 18 22 30 48 45 43 41 43 39 35 32 31 28 26 26 26 27 29 29 28 26 23 23 24 23 26 29 29 30 32 32 34 38
11 8 14 15 6 7 15 33 19 12 21 14 22 22 14 27 36 29 49 57 47 41 38 41 36 32 31 29 27 27 26 27 27 28 28 27 25 26 26 27 29 30 31 31 31 33 35 37 40
18 8 15 19 7 10 18 26 28 23 26 9 1 20 13 25 42 49 47 54 45 42 40 40 35 29 28 26 26 26 27 26 27 29 27 27 26 26 26 26 28 29 29 29 29 29 29 31 34
19 12 13 3 13 20 19 23 26 24 29 18 10 23 12 23 27 34 46 40 40 38 37 35 34 32 26 24 25 26 27 25 27 27 28 26 25 23 22 23 21 21 21 20 21 22 22 24 28
12 10 14 11 15 21 20 19 22 7 5 12 16 13 13 36 36 36 33 36 40 40 37 33 30 27 25 27 27 27 27 27 26 26 25 22 19 18 17 16 14 13 12 11 13 14 19 21 25
8 13 16 17 20 23 19 5 4 2 8 6 6 5 16 53 50 46 44 41 43 39 36 33 28 26 26 25 28 28 29 27 25 22 20 17 11 10 8 10 10 6 3 5 7 11 15 19 27
19 16 4 7 13 23 32 17 16 8 16 8 11 18 44 55 53 52 48 47 44 39 36 26 24 26 28 25 27 26 26 17 16 15 15 8 10 9 7 7 6 2 3 7 11 15 16 20 23
16 13 13 14 26 32 35 24 24 24 12 24 19 42 52 52 46 45 45 42 40 33 27 26 28 29 27 22 21 18 15 14 12 12 10 10 8 7 6 7 5 3 6 5 11 15 21 33 38
16 14 7 31 32 23 45 52 35 28 12 8 16 46 54 48 44 38 40 38 34 29 26 29 28 28 28 22 20 21 13 12 7 11 11 11 7 13 12 7 8 7 8 14 17 19 31 37 43
22 11 12 13 11 34 31 25 13 11 6 22 40 45 43 38 34 32 32 32 30 29 26 28 28 28 25 25 23 22 15 9 12 12 11 10 12 16 16 16 12 10 13 16 18 22 31 37 33
10 11 11 18 21 18 21 14 16 11 15 29 38 35 36 35 36 35 31 29 26 26 25 30 29 30 28 25 20 13 8 14 22 24 13 15 22 21 18 14 13 14 17 21 23 35 36 30 34
22 22 15 6 19 14 20 17 10 8 12 27 31 29 30 29 30 28 26 26 26 27 28 31 32 29 25 21 16 9 14 28 33 24 25 27 25 19 14 14 14 20 25 27 35 35 26 34 38
12 13 11 10 24 12 27 23 12 5 22 28 32 29 30 29 27 24 22 24 26 28 31 37 34 28 26 26 12 18 28 33 29 19 21 18 15 15 18 21 22 23 28 27 24 26 33 39 40
12 15 14 15 3 14 19 13 10 5 23 27 28 30 32 27 23 20 21 24 28 30 33 37 41 39 30 22 6 30 39 37 13 6 6 8 13 21 18 22 22 24 23 25 34 37 36 40 39
26 15 22 21 8 15 18 10 7 9 25 28 29 29 32 27 22 22 23 24 27 32 33 35 40 43 38 31 26 24 18 7 9 14 10 17 18 16 19 21 26 27 22 27 46 45 35 36 37
12 16 23 15 7 13 11 13 7 10 22 26 28 29 28 26 18 24 25 26 29 31 35 34 30 37 27 22 11 13 11 16 13 12 12 15 18 19 18 15 25 34 38 46 42 34 33 37 37
12 16 15 9 9 8 17 13 11 12 18 23 28 27 27 22 21 22 24 26 29 31 32 29 28 23 14 21 20 17 19 15 16 15 15 17 16 16 21 28 30 38 22 23 31 32 34 33 36
9 10 21 15 16 5 19 13 15 9 13 15 18 18 21 22 21 23 27 29 30 32 31 30 26 27 31 26 23 21 18 11 12 17 15 19 21 21 26 29 26 24 31 28 27 29 31 39 36
13 3 15 29 25 14 18 13 19 13 12 15 18 21 21 24 28 30 32 34 36 36 33 31 32 32 28 25 16 14 11 11 13 13 14 12 20 27 25 33 40 43 35 29 29 30 34 36 36
8 10 12 11 9 9 19 16 17 16 17 22 26 29 32 33 34 38 38 37 34 41 40 35 33 27 27 24 18 13 11 10 7 5 8 11 16 27 30 36 44 43 33 31 28 28 40 37 33
22 16 12 7 6 14 6 12 11 17 24 30 36 34 36 35 38 38 37 35 33 29 32 37 34 29 28 23 17 13 9 5 3 6 11 17 24 27 30 32 40 38 36 33 31 36 40 34 32
12 18 6 7 9 13 5 12 24 3 5 33 43 41 40 42 43 41 39 36 31 28 29 28 25 24 21 16 10 5 3 3 4 10 17 24 28 32 36 39 38 38 39 36 35 39 38 31 33
11 10 7 9 7 4 6 12 2 2 8 27 44 44 46 46 42 40 37 34 30 30 27 26 25 22 17 11 6 10 12 7 10 15 19 24 28 33 35 34 34 35 37 39 39 41 39 33 33
11 9 6 5 3 5 9 7 16 4 13 26 44 45 48 48 45 40 37 33 30 28 27 25 21 16 11 7 4 10 11 14 12 19 24 22 26 29 31 34 38 39 40 41 42 41 41 37 33
6 16 6 6 6 8 6 10 4 13 21 26 40 48 49 48 43 39 36 33 30 29 30 27 17 12 8 4 7 7 12 13 20 23 19 21 24 31 37 41 43 42 41 42 41 43 41 36 31
9 8 2 1 4 5 6 3 6 3 16 29 44 50 50 48 44 40 36 33 31 28 28 22 17 11 10 7 13 10 10 19 18 17 20 23 30 36 41 42 41 38 38 37 38 40 34 29 30
5 9 14 7 8 2 5 6 6 1 6 24 36 45 46 45 42 40 39 38 34 31 27 25 19 14 11 13 7 8 18 18 17 19 22 27 35 38 39 38 36 33 33 34 36 34 22 26 29
Wind_Direction_500mb
235 250 243 257 242 237 258 226 78 134 97 69 84 77 83 17 357 67 143 149 150 148 153 154 160 157 155 157 150 142 139 141 135 127 123 122 121 117 111 106 96 87 78 69 60 51 45 39 32
239 230 222 261 252 241 210 355 128 96 93 76 63 94 75 68 46 127 139 151 152 154 155 160 161 161 162 155 147 145 146 140 135 134 131 126 122 115 107 98 91 81 75 70 62 51 43 39 36
221 184 235 244 253 264 305 117 118 102 82 63 42 46 39 39 76 131 145 159 156 152 150 163 162 167 160 154 153 152 146 146 141 134 130 126 118 109 98 89 83 81 79 76 72 64 56 48 45
196 195 228 250 259 76 148 126 128 115 75 81 87 35 66 103 118 111 169 164 166 150 151 159 164 166 162 156 151 150 148 144 138 136 131 125 116 109 103 99 93 91 90 87 79 69 60 53 51
196 217 238 242 223 138 164 143 158 97 116 98 175 156 158 154 171 186 191 172 160 152 152 159 163 165 157 152 152 151 146 144 141 135 129 121 115 111 108 105 100 97 91 85 75 66 58 49 48
204 257 236 229 160 152 159 165 140 136 121 145 356 141 137 179 191 191 175 162 151 151 153 160 161 161 156 153 152 149 148 147 141 135 127 123 122 122 115 111 105 100 93 83 75 67 57 51 44
246 222 257 186 122 118 143 157 160 131 167 159 187 164 149 171 184 158 149 146 151 151 154 158 158 161 158 153 156 152 149 143 141 133 133 132 128 126 121 120 113 103 95 88 78 71 60 48 39
234 260 196 138 158 118 138 145 119 65 324 123 179 190 174 170 158 153 144 154 159 163 159 149 153 155 157 163 162 155 149 144 142 140 139 135 130 126 125 125 126 114 100 84 71 52 41 37 33
220 233 204 152 161 127 124 43 345 74 179 136 184 218 174 160 165 159 160 163 167 166 167 157 156 160 162 158 160 154 152 149 146 147 147 142 140 130 133 144 146 135 85 57 44 20 16 16 6
229 241 156 188 180 166 139 129 290 242 172 174 160 122 155 160 166 168 169 167 169 168 167 160 160 163 163 154 157 157 157 151 156 161 165 158 179 173 185 193 196 178 349 350 348 346 347 0 360
195 244 109 171 160 157 164 137 232 242 211 212 194 156 161 163 168 169 168 170 167 162 164 164 165 164 155 162 153 146 154 163 168 179 188 210 218 239 219 230 237 279 309 330 333 335 332 332 335
216 229 222 175 165 164 157 171 209 213 25 220 180 160 159 165 170 167 166 163 157 161 162 164 166 161 161 149 143 154 149 164 171 211 220 232 229 241 244 220 254 275 291 316 316 325 323 326 328
228 182 205 168 195 178 165 191 199 208 342 140 149 159 160 162 163 163 159 158 156 155 157 162 160 157 154 147 154 164 175 201 227 236 231 250 234 243 243 248 254 288 309 314 323 324 322 323 329
180 204 175 213 188 168 182 161 188 102 137 137 147 156 160 161 162 163 165 163 159 156 158 163 164 162 164 165 167 174 223 266 271 267 255 272 263 257 260 264 279 289 294 299 309 313 319 329 327
134 135 142 170 175 167 181 163 76 340 157 146 153 158 161 164 168 170 170 170 164 162 170 176 177 175 176 171 132 134 341 305 289 272 268 266 259 258 259 264 265 279 285 291 303 319 327 323 320
189 183 171 129 174 174 203 147 55 88 171 167 163 166 169 176 178 178 181 179 172 174 174 193 188 191 186 167 144 338 328 267 303 278 259 248 240 251 253 263 278 284 297 314 326 326 321 322 319
190 177 167 144 353 147 206 133 48 127 179 173 177 174 176 171 168 184 189 183 182 179 188 202 199 203 192 149 318 258 263 281 276 285 178 230 272 270 258 277 283 303 320 320 323 324 326 323 316
190 146 178 159 89 177 173 127 87 154 182 182 181 182 182 179 180 196 199 182 181 182 195 210 212 209 209 252 294 252 247 246 192 177 226 273 266 252 283 285 298 311 319 326 322 327 326 325 315
176 178 150 113 103 147 190 144 92 166 186 185 187 188 185 188 189 209 209 206 185 190 180 183 223 218 234 253 198 187 193 165 194 248 244 239 246 268 283 305 311 318 320 320 325 327 324 321 315
168 161 132 117 141 225 174 137 121 161 182 197 193 193 191 185 180 195 188 176 183 177 176 179 200 213 176 158 161 165 176 197 217 239 247 252 263 277 293 303 313 314 319 317 323 327 326 321 318
120 195 169 158 150 137 179 180 180 146 175 186 195 194 191 191 176 170 169 167 167 169 172 169 178 169 173 164 164 180 207 232 248 257 263 267 275 285 306 318 316 315 317 313 317 320 330 320 319
156 100 162 147 183 195 207 225 177 172 172 192 180 179 169 164 158 154 154 153 156 161 164 164 164 165 167 158 183 185 205 232 229 244 257 268 292 310 316 311 314 317 316 309 310 309 318 319 311
105 163 156 169 199 214 195 253 118 172 194 180 167 157 156 155 155 152 152 154 156 156 161 163 163 162 174 190 195 205 200 222 236 239 279 287 298 307 308 311 314 311 303 297 294 301 310 309 303
135 148 133 169 224 244 245 264 215 184 211 176 167 166 165 162 159 157 156 155 153 152 157 165 165 177 189 197 203 196 215 190 236 286 302 302 300 302 304 301 298 293 294 291 289 301 306 300 294
221 205 216 229 222 254 77 254 261 50 174 181 176 174 174 169 168 167 166 165 166 166 166 165 163 166 170 167 171 187 236 269 318 314 313 313 309 306 305 299 298 293 292 285 285 294 292 290 287
195 256 232 255 227 255 185 239 110 114 223 190 183 178 174 176 177 176 176 177 176 171 171 164 160 154 160 172 196 289 292 301 316 316 311 308 305 305 304 305 301 296 291 288 284 290 293 289 286
147 211 39 126 70 260 245 215 216 210 190 191 184 181 182 185 185 184 184 185 182 175 168 163 160 163 177 209 262 299 302 302 289 302 309 309 315 313 313 310 306 299 291 286 278 288 290 289 278
303 129 180 213 233 248 199 266 275 180 187 190 189 191 191 192 192 191 191 187 180 176 184 185 171 183 192 216 299 287 281 296 310 313 313 317 318 317 314 310 303 295 290 283 283 289 287 283 277
151 186 61 1 289 284 299 102 68 33 191 196 199 198 197 198 198 197 194 188 181 178 182 181 187 185 172 203 282 276 297 310 311 307 313 318 319 317 313 309 305 298 290 285 282 290 292 280 279
282 218 205 239 181 225 314 296 147 120 211 205 207 206 206 205 201 198 192 185 182 180 179 190 192 182 240 254 253 269 300 299 299 303 312 315 317 316 313 311 308 302 292 290 290 291 272 280 284
Wind_Speed_850mb
12 10 7 6 14 12 19 11 3 18 19 20 15 7 19 30 10 5 35 35 48 49 47 44 39 36 32 29 27 26 24 23 22 21 21 24 26 26 26 23 22 21 20 19 19 19 20 22 22
12 6 5 8 15 18 9 0 10 24 36 21 19 18 22 13 13 25 35 42 46 51 48 43 40 35 32 28 26 25 24 23 22 24 26 28 28 27 25 22 20 19 17 17 19 21 23 23 23
10 12 12 8 14 20 4 16 33 36 33 31 11 15 9 8 16 27 30 49 46 44 44 43 40 36 32 30 28 26 25 24 25 27 29 29 27 25 23 21 21 22 24 25 26 25 27 29 30
9 9 9 16 14 7 3 26 37 36 32 18 24 8 10 16 18 22 30 48 45 43 41 43 39 35 32 31 28 26 26 26 27 29 29 28 26 23 23 24 23 26 29 29 30 32 32 34 38
11 8 14 15 6 7 15 33 19 12 21 14 22 22 14 27 36 29 49 57 47 41 38 41 36 32 31 29 27 27 26 27 27 28 28 27 25 26 26 27 29 30 31 31 31 33 35 37 40
18 8 15 19 7 10 18 26 28 23 26 9 1 20 13 25 42 49 47 54 45 42 40 40 35 29 28 26 26 26 27 26 27 29 27 27 26 26 26 26 28 29 29 29 29 29 29 31 34
19 12 13 3 13 20 19 23 26 24 29 18 10 23 12 23 27 34 46 40 40 38 37 35 34 32 26 24 25 26 27 25 27 27 28 26 25 23 22 23 21 21 21 20 21 22 22 24 28
12 10 14 11 15 21 20 19 22 7 5 12 16 13 13 36 36 36 33 36 40 40 37 33 30 27 25 27 27 27 27 27 26 26 25 22 19 18 17 16 14 13 12 11 13 14 19 21 25
8 13 16 17 20 23 19 5 4 2 8 6 6 5 16 53 50 46 44 41 43 39 36 33 28 26 26 25 28 28 29 27 25 22 20 17 11 10 8 10 10 6 3 5 7 11 15 19 27
19 16 4 7 13 23 32 17 16 8 16 8 11 18 44 55 53 52 48 47 44 39 36 26 24 26 28 25 27 26 26 17 16 15 15 8 10 9 7 7 6 2 3 7 11 15 16 20 23
16 13 13 14 26 32 35 24 24 24 12 24 19 42 52 52 46 45 45 42 40 33 27 26 28 29 27 22 21 18 15 14 12 12 10 10 8 7 6 7 5 3 6 5 11 15 21 33 38
16 14 7 31 32 23 45 52 35 28 12 8 16 46 54 48 44 38 40 38 34 29 26 29 28 28 28 22 20 21 13 12 7 11 11 11 7 13 12 7 8 7 8 14 17 19 31 37 43
22 11 12 13 11 34 31 25 13 11 6 22 40 45 43 38 34 32 32 32 30 29 26 28 28 28 25 25 23 22 15 9 12 12 11 10 12 16 16 16 12 10 13 16 18 22 31 37 33
10 11 11 18 21 18 21 14 16 11 15 29 38 35 36 35 36 35 31 29 26 26 25 30 29 30 28 25 20 13 8 14 22 24 13 15 22 21 18 14 13 14 17 21 23 35 36 30 34
22 22 15 6 19 14 20 17 10 8 12 27 31 29 30 29 30 28 26 26 26 27 28 31 32 29 25 21 16 9 14 28 33 24 25 27 25 19 14 14 14 20 25 27 35 35 26 34 38
12 13 11 10 24 12 27 23 12 5 22 28 32 29 30 29 27 24 22 24 26 28 31 37 34 28 26 26 12 18 28 33 29 19 21 18 15 15 18 21 22 23 28 27 24 26 33 39 40
12 15 14 15 3 14 19 13 10 5 23 27 28 30 32 27 23 20 21 24 28 30 33 37 41 39 30 22 6 30 39 37 13 6 6 8 13 21 18 22 22 24 23 25 34 37 36 40 39
26 15 22 21 8 15 18 10 7 9 25 28 29 29 32 27 22 22 23 24 27 32 33 35 40 43 38 31 26 24 18 7 9 14 10 17 18 16 19 21 26 27 22 27 46 45 35 36 37
12 16 23 15 7 13 11 13 7 10 22 26 28 29 28 26 18 24 25 26 29 31 35 34 30 37 27 22 11 13 11 16 13 12 12 15 18 19 18 15 25 34 38 46 42 34 33 37 37
12 16 15 9 9 8 17 13 11 12 18 23 28 27 27 22 21 22 24 26 29 31 32 29 28 23 14 21 20 17 19 15 16 15 15 17 16 16 21 28 30 38 22 23 31 32 34 33 36
9 10 21 15 16 5 19 13 15 9 13 15 18 18 21 22 21 23 27 29 30 32 31 30 26 27 31 26 23 21 18 11 12 17 15 19 21 21 26 29 26 24 31 28 27 29 31 39 36
13 3 15 29 25 14 18 13 19 13 12 15 18 21 21 24 28 30 32 34 36 36 33 31 32 32 28 25 16 14 11 11 13 13 14 12 20 27 25 33 40 43 35 29 29 30 34 36 36
8 10 12 11 9 9 19 16 17 16 17 22 26 29 32 33 34 38 38 37 34 41 40 35 33 27 27 24 18 13 11 10 7 5 8 11 16 27 30 36 44 43 33 31 28 28 40 37 33
22 16 12 7 6 14 6 12 11 17 24 30 36 34 36 35 38 38 37 35 33 29 32 37 34 29 28 23 17 13 9 5 3 6 11 17 24 27 30 32 40 38 36 33 31 36 40 34 32
12 18 6 7 9 13 5 12 24 3 5 33 43 41 40 42 43 41 39 36 31 28 29 28 25 24 21 16 10 5 3 3 4 10 17 24 28 32 36 39 38 38 39 36 35 39 38 31 33
11 10 7 9 7 4 6 12 2 2 8 27 44 44 46 46 42 40 37 34 30 30 27 26 25 22 17 11 6 10 12 7 10 15 19 24 28 33 35 34 34 35 37 39 39 41 39 33 33
11 9 6 5 3 5 9 7 16 4 13 26 44 45 48 48 45 40 37 33 30 28 27 25 21 16 11 7 4 10 11 14 12 19 24 22 26 29 31 34 38 39 40 41 42 41 41 37 33
6 16 6 6 6 8 6 10 4 13 21 26 40 48 49 48 43 39 36 33 30 29 30 27 17 12 8 4 7 7 12 13 20 23 19 21 24 31 37 41 43 42 41 42 41 43 41 36 31
9 8 2 1 4 5 6 3 6 3 16 29 44 50 50 48 44 40 36 33 31 28 28 22 17 11 10 7 13 10 10 19 18 17 20 23 30 36 41 42 41 38 38 37 38 40 34 29 30
5 9 14 7 8 2 5 6 6 1 6 24 36 45 46 45 42 40 39 38 34 31 27 25 19 14 11 13 7 8 18 18 17 19 22 27 35 38 39 38 36 33 33 34 36 34 22 26 29
Wind_Direction_850mb
235 250 243 257 242 237 258 226 78 134 97 69 84 77 83 17 357 67 143 149 150 148 153 154 160 157 155 157 150 142 139 141 135 127 123 122 121 117 111 106 96 87 78 69 60 51 45 39 32
239 230 222 261 252 241 210 355 128 96 93 76 63 94 75 68 46 127 139 151 152 154 155 160 161 161 162 155 147 145 146 140 135 134 131 126 122 115 107 98 91 81 75 70 62 51 43 39 36
221 184 235 244 253 264 305 117 118 102 82 63 42 46 39 39 76 131 145 159 156 152 150 163 162 167 160 154 153 152 146 146 141 134 130 126 118 109 98 89 83 81 79 76 72 64 56 48 45
196 195 228 250 259 76 148 126 128 115 75 81 87 35 66 103 118 111 169 164 166 150 151 159 164 166 162 156 151 150 148 144 138 136 131 125 116 109 103 99 93 91 90 87 79 69 60 53 51
196 217 238 242 223 138 164 143 158 97 116 98 175 156 158 154 171 186 191 172 160 152 152 159 163 165 157 152 152 151 146 144 141 135 129 121 115 111 108 105 100 97 91 85 75 66 58 49 48
204 257 236 229 160 152 159 165 140 136 121 145 356 141 137 179 191 191 175 162 151 151 153 160 161 161 156 153 152 149 148 147 141 135 127 123 122 122 115 111 105 100 93 83 75 67 57 51 44
246 222 257 186 122 118 143 157 160 131 167 159 187 164 149 171 184 158 149 146 151 151 154 158 158 161 158 153 156 152 149 143 141 133 133 132 128 126 121 120 113 103 95 88 78 71 60 48 39
234 260 196 138 158 118 138 145 119 65 324 123 179 190 174 170 158 153 144 154 159 163 159 149 153 155 157 163 162 155 149 144 142 140 139 135 130 126 125 125 126 114 100 84 71 52 41 37 33
220 233 204 152 161 127 124 43 345 74 179 136 184 218 174 160 165 159 160 163 167 166 167 157 156 160 162 158 160 154 152 149 146 147 147 142 140 130 133 144 146 135 85 57 44 20 16 16 6
229 241 156 188 180 166 139 129 290 242 172 174 160 122 155 160 166 168 169 167 169 168 167 160 160 163 163 154 157 157 157 151 156 161 165 158 179 173 185 193 196 178 349 350 348 346 347 0 360
195 244 109 171 160 157 164 137 232 242 211 212 194 156 161 163 168 169 168 170 167 162 164 164 165 164 155 162 153 146 154 163 168 179 188 210 218 239 219 230 237 279 309 330 333 335 332 332 335
216 229 222 175 165 164 157 171 209 213 25 220 180 160 159 165 170 167 166 163 157 161 162 164 166 161 161 149 143 154 149 164 171 211 220 232 229 241 244 220 254 275 291 316 316 325 323 326 328
228 182 205 168 195 178 165 191 199 208 342 140 149 159 160 162 163 163 159 158 156 155 157 162 160 157 154 147 154 164 175 201 227 236 231 250 234 243 243 248 254 288 309 314 323 324 322 323 329
180 204 175 213 188 168 182 161 188 102 137 137 147 156 160 161 162 163 165 163 159 156 158 163 164 162 164 165 167 174 223 266 271 267 255 272 263 257 260 264 279 289 294 299 309 313 319 329 327
134 135 142 170 175 167 181 163 76 340 157 146 153 158 161 164 168 170 170 170 164 162 170 176 177 175 176 171 132 134 341 305 289 272 268 266 259 258 259 264 265 279 285 291 303 319 327 323 320
189 183 171 129 174 174 203 147 55 88 171 167 163 166 169 176 178 178 181 179 172 174 174 193 188 191 186 167 144 338 328 267 303 278 259 248 240 251 253 263 278 284 297 314 326 326 321 322 319
190 177 167 144 353 147 206 133 48 127 179 173 177 174 176 171 168 184 189 183 182 179 188 202 199 203 192 149 318 258 263 281 276 285 178 230 272 270 258 277 283 303 320 320 323 324 326 323 316
190 146 178 159 89 177 173 127 87 154 182 182 181 182 182 179 180 196 199 182 181 182 195 210 212 209 209 252 294 252 247 246 192 177 226 273 266 252 283 285 298 311 319 326 322 327 326 325 315
176 178 150 113 103 147 190 144 92 166 186 185 187 188 185 188 189 209 209 206 185 190 180 183 223 218 234 253 198 187 193 165 194 248 244 239 246 268 283 305 311 318 320 320 325 327 324 321 315
168 161 132 117 141 225 174 137 121 161 182 197 193 193 191 185 180 195 188 176 183 177 176 179 200 213 176 158 161 165 176 197 217 239 247 252 263 277 293 303 313 314 319 317 323 327 326 321 318
120 195 169 158 150 137 179 180 180 146 175 186 195 194 191 191 176 170 169 167 167 169 172 169 178 169 173 164 164 180 207 232 248 257 263 267 275 285 306 318 316 315 317 313 317 320 330 320 319
156 100 162 147 183 195 207 225 177 172 172 192 180 179 169 164 158 154 154 153 156 161 164 164 164 165 167 158 183 185 205 232 229 244 257 268 292 310 316 311 314 317 316 309 310 309 318 319 311
105 163 156 169 199 214 195 253 118 172 194 180 167 157 156 155 155 152 152 154 156 156 161 163 163 162 174 190 195 205 200 222 236 239 279 287 298 307 308 311 314 311 303 297 294 301 310 309 303
135 148 133 169 224 244 245 264 215 184 211 176 167 166 165 162 159 157 156 155 153 152 157 165 165 177 189 197 203 196 215 190 236 286 302 302 300 302 304 301 298 293 294 291 289 301 306 300 294
221 205 216 229 222 254 77 254 261 50 174 181 176 174 174 169 168 167 166 165 166 166 166 165 163 166 170 167 171 187 236 269 318 314 313 313 309 306 305 299 298 293 292 285 285 294 292 290 287
195 256 232 255 227 255 185 239 110 114 223 190 183 178 174 176 177 176 176 177 176 171 171 164 160 154 160 172 196 289 292 301 316 316 311 308 305 305 304 305 301 296 291 288 284 290 293 289 286
147 211 39 126 70 260 245 215 216 210 190 191 184 181 182 185 185 184 184 185 182 175 168 163 160 163 177 209 262 299 302 302 289 302 309 309 315 313 313 310 306 299 291 286 278 288 290 289 278
303 129 180 213 233 248 199 266 275 180 187 190 189 191 191 192 192 191 191 187 180 176 184 185 171 183 192 216 299 287 281 296 310 313 313 317 318 317 314 310 303 295 290 283 283 289 287 283 277
151 186 61 1 289 284 299 102 68 33 191 196 199 198 197 198 198 197 194 188 181 178 182 181 187 185 172 203 282 276 297 310 311 307 313 318 319 317 313 309 305 298 290 285 282 290 292 280 279
282 218 205 239 181 225 314 296 147 120 211 205 207 206 206 205 201 198 192 185 182 180 179 190 192 182 240 254 253 269 300 299 299 303 312 315 317 316 313 311 308 302 292 290 290 291 272 280 284